Hinckley, MN

4:34 AM CST on January 19, 2018 (GMT -0600)
Hinckley

Weather History for K04W - December, 2013

Change the Weather History Date:

Thursday, December 5, 2013

  Actual Average (KJMR) Record (KJMR)
Temperature  
Mean Temperature 8 °F -  
Max Temperature 21 °F 28 °F 53 °F (2001)
Min Temperature -7 °F 6 °F -22 °F (1984)
Degree Days  
Heating Degree Days 57    
Moisture  
Dew Point 1 °F    
Average Humidity 77    
Maximum Humidity 92    
Minimum Humidity 67    
Precipitation  
Precipitation 0.00 in - - ()
Sea Level Pressure  
Sea Level Pressure 29.92 in    
Wind  
Wind Speed 13 mph (WSW)    
Max Wind Speed 20 mph    
Max Gust Speed 25 mph    
Visibility 9 miles    
Events Snow    
Averages and records for this station are not official NWS values.
T = Trace of Precipitation, MM = Missing Value Source: NWS Daily Summary

Daily Weather History Graph

Daily Weather History Graph

Search for Another Location

Airport or City:

Trip Planner

Search our weather history database for the weather conditions in past years. The results will help you decide how hot, cold, wet, or windy it might be!

Date:

Astronomy

Dec. 05, 2013 Rise Set
Actual Time 7:37 AM CST 4:26 PM CST
Civil Twilight 7:03 AM CST 5:00 PM CST
Nautical Twilight 6:26 AM CST 5:38 PM CST
Astronomical Twilight 5:49 AM CST 6:14 PM CST
Moon 9:54 AM CST (12/5) 7:53 PM CST (12/5)
Length of Visible Light 9h 57m
Length of Day
8h 48m
Waxing Crescent, 11% of the Moon is Illuminated
Dec 5
Waxing Crescent
Dec 9
First Quarter
Dec 17
Full
Dec 25
Last Quarter
Jan 1
New

Hourly Weather History & Observations

Time (CST) Temp. Windchill Dew Point Humidity Pressure Visibility Wind Dir Wind Speed Gust Speed Precip Events Conditions
12:02 AM 21.2 °F 7.8 °F 17.6 °F 86% 29.55 in 10.0 mi West 15.0 mph 18.4 mph N/A   Overcast
12:21 AM 21.2 °F 10.9 °F 15.8 °F 80% 29.55 in 10.0 mi West 9.2 mph 18.4 mph N/A Snow Light Snow
12:42 AM 19.4 °F 6.6 °F 15.8 °F 86% 29.56 in 10.0 mi West 12.7 mph 17.3 mph N/A Snow Light Snow
1:02 AM 19.4 °F 5.0 °F 14.0 °F 80% 29.57 in 10.0 mi West 16.1 mph 23.0 mph N/A Snow Light Snow
1:21 AM 17.6 °F 3.2 °F 12.2 °F 79% 29.59 in 10.0 mi West 15.0 mph 21.9 mph N/A Snow Light Snow
1:42 AM 17.6 °F 2.2 °F 12.2 °F 79% 29.61 in 10.0 mi West 17.3 mph 23.0 mph N/A Snow Light Snow
2:02 AM 15.8 °F 2.1 °F 12.2 °F 86% 29.61 in 7.0 mi WSW 12.7 mph 20.7 mph N/A Snow Light Snow
2:21 AM 15.8 °F 1.4 °F 10.4 °F 79% 29.62 in 7.0 mi WSW 13.8 mph 19.6 mph N/A Snow Light Snow
2:42 AM 14.0 °F -0.8 °F 10.4 °F 86% 29.63 in 7.0 mi WSW 13.8 mph 18.4 mph N/A Snow Light Snow
3:02 AM 14.0 °F -0.8 °F 8.6 °F 79% 29.64 in 10.0 mi West 13.8 mph 18.4 mph N/A Snow Light Snow
3:22 AM 12.2 °F -3.1 °F 8.6 °F 85% 29.64 in 10.0 mi WSW 13.8 mph - N/A   Overcast
3:42 AM 12.2 °F -2.5 °F 6.8 °F 79% 29.66 in 10.0 mi WSW 12.7 mph - N/A Snow Light Snow
4:01 AM 10.4 °F -4.1 °F 6.8 °F 85% 29.68 in 10.0 mi WSW 11.5 mph - N/A Snow Light Snow
4:22 AM 10.4 °F -4.8 °F 5.0 °F 79% 29.69 in 10.0 mi WSW 12.7 mph - N/A   Overcast
4:42 AM 10.4 °F -4.8 °F 5.0 °F 79% 29.71 in 10.0 mi WSW 12.7 mph 17.3 mph N/A   Mostly Cloudy
5:02 AM 10.4 °F -4.8 °F 5.0 °F 79% 29.72 in 10.0 mi WSW 12.7 mph - N/A   Overcast
5:22 AM 10.4 °F -5.4 °F 5.0 °F 79% 29.73 in 10.0 mi WSW 13.8 mph - N/A   Overcast
5:42 AM 10.4 °F -6.0 °F 5.0 °F 79% 29.74 in 10.0 mi West 15.0 mph - N/A   Overcast
6:02 AM 10.4 °F -4.1 °F 3.2 °F 73% 29.76 in 10.0 mi WSW 11.5 mph 19.6 mph N/A   Mostly Cloudy
6:22 AM 8.6 °F -7.7 °F 3.2 °F 79% 29.77 in 10.0 mi WSW 13.8 mph - N/A   Scattered Clouds
6:42 AM 8.6 °F -6.3 °F 3.2 °F 79% 29.79 in 10.0 mi WSW 11.5 mph - N/A   Mostly Cloudy
7:02 AM 6.8 °F -6.9 °F 1.4 °F 79% 29.80 in 10.0 mi WSW 9.2 mph - N/A   Overcast
7:22 AM 6.8 °F -10.0 °F 1.4 °F 79% 29.82 in 10.0 mi WSW 13.8 mph - N/A   Mostly Cloudy
7:42 AM 5.0 °F -11.6 °F 1.4 °F 85% 29.83 in 10.0 mi WSW 12.7 mph 18.4 mph N/A   Mostly Cloudy
8:02 AM 5.0 °F -11.6 °F -0.4 °F 78% 29.84 in 10.0 mi WSW 12.7 mph - N/A   Scattered Clouds
8:22 AM 5.0 °F -12.3 °F -0.4 °F 78% 29.85 in 10.0 mi WSW 13.8 mph - N/A   Scattered Clouds
8:42 AM 5.0 °F -10.8 °F -0.4 °F 78% 29.86 in 10.0 mi WSW 11.5 mph - N/A   Scattered Clouds
9:02 AM 5.0 °F -11.6 °F -0.4 °F 78% 29.88 in 10.0 mi WSW 12.7 mph - N/A   Scattered Clouds
9:22 AM 5.0 °F -13.0 °F -0.4 °F 78% 29.88 in 10.0 mi WSW 15.0 mph 21.9 mph N/A   Clear
9:42 AM 5.0 °F -14.7 °F -0.4 °F 78% 29.90 in 5.0 mi WSW 18.4 mph - N/A   Haze
10:02 AM 6.8 °F -10.0 °F -0.4 °F 72% 29.91 in 2.5 mi WSW 13.8 mph - N/A   Haze
10:22 AM 6.8 °F -10.0 °F -0.4 °F 72% 29.93 in 3.0 mi WSW 13.8 mph 23.0 mph N/A Snow Light Snow
10:42 AM 6.8 °F -12.4 °F -0.4 °F 72% 29.95 in 3.0 mi WSW 18.4 mph 23.0 mph N/A Snow Light Snow
11:02 AM 6.8 °F -11.8 °F -0.4 °F 72% 29.96 in 5.0 mi WSW 17.3 mph 23.0 mph N/A Snow Light Snow
11:22 AM 8.6 °F -7.0 °F -0.4 °F 67% 29.96 in 7.0 mi WSW 12.7 mph 23.0 mph N/A Snow Light Snow
11:42 AM 8.6 °F -7.7 °F -0.4 °F 67% 29.97 in 10.0 mi WSW 13.8 mph 23.0 mph N/A   Mostly Cloudy
12:02 PM 8.6 °F -10.0 °F -0.4 °F 67% 29.97 in 7.0 mi WSW 18.4 mph 21.9 mph N/A   Scattered Clouds
12:22 PM 8.6 °F -9.5 °F -0.4 °F 67% 29.97 in 10.0 mi West 17.3 mph 24.2 mph N/A   Clear
12:42 PM 8.6 °F -10.0 °F -0.4 °F 67% 29.98 in 10.0 mi WSW 18.4 mph 25.3 mph N/A   Clear
1:02 PM 8.6 °F -9.5 °F 1.4 °F 73% 29.99 in 10.0 mi West 17.3 mph 20.7 mph N/A   Scattered Clouds
1:22 PM 8.6 °F -9.5 °F 1.4 °F 73% 29.99 in 10.0 mi WSW 17.3 mph 24.2 mph N/A   Scattered Clouds
1:42 PM 8.6 °F -8.9 °F 1.4 °F 73% 29.99 in 10.0 mi West 16.1 mph - N/A   Scattered Clouds
2:02 PM 8.6 °F -7.7 °F 1.4 °F 73% 30.00 in 10.0 mi West 13.8 mph - N/A   Scattered Clouds
2:22 PM 8.6 °F -10.5 °F 1.4 °F 73% 30.01 in 10.0 mi West 19.6 mph 25.3 mph N/A   Scattered Clouds
2:42 PM 8.6 °F -10.0 °F -0.4 °F 67% 30.01 in 10.0 mi West 18.4 mph - N/A   Scattered Clouds
3:02 PM 8.6 °F -7.0 °F -0.4 °F 67% 30.01 in 10.0 mi West 12.7 mph - N/A   Scattered Clouds
3:22 PM 8.6 °F -7.7 °F -0.4 °F 67% 30.02 in 10.0 mi West 13.8 mph - N/A   Clear
3:42 PM 8.6 °F -5.5 °F -0.4 °F 67% 30.03 in 10.0 mi WSW 10.4 mph 17.3 mph N/A   Clear
4:02 PM 6.8 °F -8.6 °F -0.4 °F 72% 30.04 in 10.0 mi WSW 11.5 mph - N/A   Clear
4:22 PM 6.8 °F -9.3 °F -0.4 °F 72% 30.05 in 10.0 mi WSW 12.7 mph - N/A   Clear
4:42 PM 5.0 °F -12.3 °F -0.4 °F 78% 30.05 in 10.0 mi WSW 13.8 mph - N/A   Clear
5:03 PM 5.0 °F -10.8 °F -2.2 °F 72% 30.06 in 10.0 mi WSW 11.5 mph - N/A   Clear
5:22 PM 3.2 °F -14.6 °F -2.2 °F 78% 30.07 in 10.0 mi WSW 13.8 mph - N/A   Clear
5:42 PM 3.2 °F -13.1 °F -4.0 °F 72% 30.08 in 10.0 mi WSW 11.5 mph - N/A   Clear
6:03 PM 3.2 °F -12.2 °F -4.0 °F 72% 30.09 in 10.0 mi WSW 10.4 mph - N/A   Clear
6:22 PM 3.2 °F -13.9 °F -4.0 °F 72% 30.11 in 10.0 mi WSW 12.7 mph - N/A   Clear
6:42 PM 1.4 °F -13.5 °F -4.0 °F 78% 30.11 in 10.0 mi WSW 9.2 mph - N/A   Clear
7:03 PM 1.4 °F -13.5 °F -4.0 °F 78% 30.13 in 10.0 mi WSW 9.2 mph - N/A   Clear
7:22 PM 1.4 °F -13.5 °F -4.0 °F 78% 30.13 in 10.0 mi WSW 9.2 mph - N/A   Clear
7:42 PM 1.4 °F -14.5 °F -4.0 °F 78% 30.14 in 10.0 mi West 10.4 mph - N/A   Clear
8:03 PM -0.4 °F -15.7 °F -5.8 °F 78% 30.16 in 10.0 mi WSW 9.2 mph - N/A   Clear
8:22 PM -0.4 °F -16.7 °F -5.8 °F 78% 30.17 in 10.0 mi WSW 10.4 mph - N/A   Clear
8:43 PM -0.4 °F -16.7 °F -5.8 °F 78% 30.18 in 10.0 mi WSW 10.4 mph - N/A   Clear
9:02 PM -0.4 °F -14.7 °F -7.6 °F 72% 30.19 in 10.0 mi WSW 8.1 mph - N/A   Clear
9:22 PM -0.4 °F -15.7 °F -5.8 °F 78% 30.20 in 10.0 mi WSW 9.2 mph - N/A   Clear
9:43 PM -4.0 °F -19.0 °F -7.6 °F 85% 30.20 in 10.0 mi WSW 8.1 mph - N/A   Clear
10:02 PM -4.0 °F -17.8 °F -7.6 °F 85% 30.20 in 10.0 mi WSW 6.9 mph - N/A   Clear
10:22 PM -4.0 °F -17.8 °F -7.6 °F 85% 30.21 in 10.0 mi WSW 6.9 mph - N/A   Clear
10:42 PM -4.0 °F -19.0 °F -7.6 °F 85% 30.21 in 10.0 mi West 8.1 mph - N/A   Clear
11:02 PM -5.8 °F -19.9 °F -9.4 °F 84% 30.22 in 10.0 mi WSW 6.9 mph - N/A   Clear
11:21 PM -5.8 °F -18.4 °F -9.4 °F 84% 30.22 in 10.0 mi WSW 5.8 mph - N/A   Clear
11:42 PM -7.6 °F -18.8 °F -9.4 °F 92% 30.24 in 10.0 mi SSW 4.6 mph - N/A   Clear